Regional Weather Roundup
Issued by NWS

Home | Current Version | Previous Version | Graphics & Text | Print | Product List | Glossary On
Versions: 1 2 3 4 5 6 7 8 9 10 11 12 13 14 15 16 17 18 19 20 21 22 23 24 25 26 27 28 29 30 31 32 33 34 35 36 37 38 39 40 41 42 43 44 45 46 47 48 49 50
000
ASUS45 KBOI 020510
RWRID

IDAHO REGIONAL WEATHER ROUNDUP
NATIONAL WEATHER SERVICE BOISE ID
1100 PM MDT SAT AUG 01 2015

NOTE: "FAIR" INDICATES FEW OR NO CLOUDS BELOW 12000 FEET
WITH NO SIGNIFICANT WEATHER AND/OR OBSTRUCTIONS TO VISIBILITY

IDZ012-014-020600-
SOUTHWEST IDAHO


CITY           SKY/WX    TMP DP  RH WIND       PRES   REMARKS
BOISE          CLEAR     82  35  18 S3        29.88R
CALDWELL       CLEAR     77  54  44 CALM      29.87R
MOUNTAIN HOME  CLEAR     82  35  17 NW5       29.89R
$$

IDZ016-017-020600-
SOUTHCENTRAL IDAHO


CITY           SKY/WX    TMP DP  RH WIND       PRES   REMARKS
BURLEY         PTCLDY    66  46  48 S8        29.99S
JEROME         CLEAR     80  37  21 SE7       29.99R
TWIN FALLS     PTCLDY    76  30  18 S9        29.97S
$$

IDZ019>023-020600-
SOUTHEAST IDAHO


CITY           SKY/WX    TMP DP  RH WIND       PRES   REMARKS
IDAHO FALLS    PTCLDY    63  48  58 CALM      30.06S
POCATELLO      CLEAR     70  37  29 CALM      30.04R
REXBURG        PTCLDY    69  40  34 CALM      30.07R
$$

IDZ006-010-011-018-031-032-020600-
CENTRAL IDAHO MOUNTAINS


CITY           SKY/WX    TMP DP  RH WIND       PRES   REMARKS
MCCALL         CLEAR     67  44  43 NW6       30.09R
HAILEY         CLEAR     66  45  45 NW8       30.11R
STANLEY          N/A     58  30  34 S3        30.23R
SALMON         CLEAR     72  39  30 CALM      29.99R
CHALLIS        CLEAR     72  33  24 W5        30.07R
$$

IDZ002-004-006-007-026-020600-
NORTHERN IDAHO


CITY           SKY/WX    TMP DP  RH WIND       PRES   REMARKS
LEWISTON       PTCLDY    85  24  11 SW7       29.84R
LOWELL           N/A     70  53  54 N3        29.89R
COEUR D`ALENE  PTCLDY    70  41  35 SE8       29.88R
MULLAN PASS    MOCLDY    71  17  12 W5        30.17S
$$



USA.gov is the U.S. government's official web portal to all federal, state and local government web resources and services.